Year,Month,Day,Hour,Minute,Value (Times are PST for temperature in C)
2019,03,31,00,00,7.90
2019,03,31,00,01,7.90
2019,03,31,00,02,7.90
2019,03,31,00,03,7.90
2019,03,31,00,04,7.90
2019,03,31,00,05,7.90
2019,03,31,00,06,7.90
2019,03,31,00,07,7.90
2019,03,31,00,08,7.90
2019,03,31,00,09,7.80
2019,03,31,00,10,7.80
2019,03,31,00,11,7.80
2019,03,31,00,12,7.80
2019,03,31,00,13,7.80
2019,03,31,00,14,7.80
2019,03,31,00,15,7.80
2019,03,31,00,16,7.80
2019,03,31,00,17,7.80
2019,03,31,00,18,7.80
2019,03,31,00,19,7.80
2019,03,31,00,20,7.80
2019,03,31,00,21,7.80
2019,03,31,00,22,7.70
2019,03,31,00,23,7.70
2019,03,31,00,24,7.70
2019,03,31,00,25,7.70
2019,03,31,00,26,7.70
2019,03,31,00,27,7.70
2019,03,31,00,28,7.70
2019,03,31,00,29,7.70
2019,03,31,00,30,7.70
2019,03,31,00,31,7.70
2019,03,31,00,32,7.70
2019,03,31,00,33,7.70
2019,03,31,00,34,7.70
2019,03,31,00,35,7.70
2019,03,31,00,36,7.70
2019,03,31,00,37,7.60
2019,03,31,00,38,7.60
2019,03,31,00,39,7.60
2019,03,31,00,40,7.60
2019,03,31,00,41,7.60
2019,03,31,00,42,7.60
2019,03,31,00,43,7.60
2019,03,31,00,44,7.60
2019,03,31,00,45,7.60
2019,03,31,00,46,7.60
2019,03,31,00,47,7.60
2019,03,31,00,48,7.60
2019,03,31,00,49,7.60
2019,03,31,00,50,7.60
2019,03,31,00,51,7.60
2019,03,31,00,52,7.60
2019,03,31,00,53,7.60
2019,03,31,00,54,7.60
2019,03,31,00,55,7.60
2019,03,31,00,56,7.60
2019,03,31,00,57,7.60
2019,03,31,00,58,7.60
2019,03,31,00,59,7.60
2019,03,31,01,00,7.60
2019,03,31,01,01,7.60
2019,03,31,01,02,7.60
2019,03,31,01,03,7.60
2019,03,31,01,04,7.60
2019,03,31,01,05,7.50
2019,03,31,01,06,7.50
2019,03,31,01,07,7.50
2019,03,31,01,08,7.50
2019,03,31,01,09,7.50
2019,03,31,01,10,7.50
2019,03,31,01,11,7.50
2019,03,31,01,12,7.50
2019,03,31,01,13,7.50
2019,03,31,01,14,7.50
2019,03,31,01,15,7.50
2019,03,31,01,16,7.50
2019,03,31,01,17,7.50
2019,03,31,01,18,7.40
2019,03,31,01,19,7.50
2019,03,31,01,20,7.50
2019,03,31,01,21,7.40
2019,03,31,01,22,7.40
2019,03,31,01,23,7.40
2019,03,31,01,24,7.40
2019,03,31,01,25,7.40
2019,03,31,01,26,7.40
2019,03,31,01,27,7.40
2019,03,31,01,28,7.40
2019,03,31,01,29,7.40
2019,03,31,01,30,7.40
2019,03,31,01,31,7.40
2019,03,31,01,32,7.40
2019,03,31,01,33,7.40
2019,03,31,01,34,7.40
2019,03,31,01,35,7.40
2019,03,31,01,36,7.40
2019,03,31,01,37,7.40
2019,03,31,01,38,7.40
2019,03,31,01,39,7.40
2019,03,31,01,40,7.40
2019,03,31,01,41,7.40
2019,03,31,01,42,7.40
2019,03,31,01,43,7.40
2019,03,31,01,44,7.40
2019,03,31,01,45,7.40
2019,03,31,01,46,7.40
2019,03,31,01,47,7.40
2019,03,31,01,48,7.40
2019,03,31,01,49,7.40
2019,03,31,01,50,7.40
2019,03,31,01,51,7.40
2019,03,31,01,52,7.40
2019,03,31,01,53,7.40
2019,03,31,01,54,7.40
2019,03,31,01,55,7.40
2019,03,31,01,56,7.40
2019,03,31,01,57,7.40
2019,03,31,01,58,7.40
2019,03,31,01,59,7.40
2019,03,31,02,00,7.40
2019,03,31,02,01,7.40
2019,03,31,02,02,7.40
2019,03,31,02,03,7.40
2019,03,31,02,04,7.40
2019,03,31,02,05,7.40
2019,03,31,02,06,7.40
2019,03,31,02,07,7.40
2019,03,31,02,08,7.40
2019,03,31,02,09,7.40
2019,03,31,02,10,7.40
2019,03,31,02,11,7.40
2019,03,31,02,12,7.40
2019,03,31,02,13,7.40
2019,03,31,02,14,7.40
2019,03,31,02,15,7.40
2019,03,31,02,16,7.40
2019,03,31,02,17,7.40
2019,03,31,02,18,7.40
2019,03,31,02,19,7.40
2019,03,31,02,20,7.30
2019,03,31,02,21,7.30
2019,03,31,02,22,7.30
2019,03,31,02,23,7.30
2019,03,31,02,24,7.30
2019,03,31,02,25,7.30
2019,03,31,02,26,7.30
2019,03,31,02,27,7.30
2019,03,31,02,28,7.30
2019,03,31,02,29,7.30
2019,03,31,02,30,7.30
2019,03,31,02,31,7.30
2019,03,31,02,32,7.30
2019,03,31,02,33,7.30
2019,03,31,02,34,7.30
2019,03,31,02,35,7.30
2019,03,31,02,36,7.30
2019,03,31,02,37,7.30
2019,03,31,02,38,7.30
2019,03,31,02,39,7.30
2019,03,31,02,40,7.30
2019,03,31,02,41,7.20
2019,03,31,02,42,7.20
2019,03,31,02,43,7.20
2019,03,31,02,44,7.20
2019,03,31,02,45,7.20
2019,03,31,02,46,7.20
2019,03,31,02,47,7.20
2019,03,31,02,48,7.20
2019,03,31,02,49,7.20
2019,03,31,02,50,7.20
2019,03,31,02,51,7.20
2019,03,31,02,52,7.20
2019,03,31,02,53,7.20
2019,03,31,02,54,7.10
2019,03,31,02,55,7.10
2019,03,31,02,56,7.10
2019,03,31,02,57,7.10
2019,03,31,02,58,7.10
2019,03,31,02,59,7.10
2019,03,31,03,00,7.10
2019,03,31,03,01,7.10
2019,03,31,03,02,7.10
2019,03,31,03,03,7.10
2019,03,31,03,04,7.10
2019,03,31,03,05,7.10
2019,03,31,03,06,7.10
2019,03,31,03,07,7.00
2019,03,31,03,08,7.00
2019,03,31,03,09,7.00
2019,03,31,03,10,7.00
2019,03,31,03,11,7.00
2019,03,31,03,12,7.00
2019,03,31,03,13,7.00
2019,03,31,03,14,6.90
2019,03,31,03,15,6.90
2019,03,31,03,16,6.90
2019,03,31,03,17,6.90
2019,03,31,03,18,6.90
2019,03,31,03,19,6.90
2019,03,31,03,20,6.90
2019,03,31,03,21,6.90
2019,03,31,03,22,6.90
2019,03,31,03,23,6.90
2019,03,31,03,24,6.90
2019,03,31,03,25,6.90
2019,03,31,03,26,6.90
2019,03,31,03,27,6.90
2019,03,31,03,28,6.80
2019,03,31,03,29,6.80
2019,03,31,03,30,6.80
2019,03,31,03,31,6.80
2019,03,31,03,32,6.80
2019,03,31,03,33,6.80
2019,03,31,03,34,6.80
2019,03,31,03,35,6.80
2019,03,31,03,36,6.80
2019,03,31,03,37,6.80
2019,03,31,03,38,6.80
2019,03,31,03,39,6.80
2019,03,31,03,40,6.80
2019,03,31,03,41,6.80
2019,03,31,03,42,6.80
2019,03,31,03,43,6.80
2019,03,31,03,44,6.80
2019,03,31,03,45,6.80
2019,03,31,03,46,6.70
2019,03,31,03,47,6.70
2019,03,31,03,48,6.70
2019,03,31,03,49,6.70
2019,03,31,03,50,6.70
2019,03,31,03,51,6.70
2019,03,31,03,52,6.70
2019,03,31,03,53,6.70
2019,03,31,03,54,6.70
2019,03,31,03,55,6.70
2019,03,31,03,56,6.70
2019,03,31,03,57,6.70
2019,03,31,03,58,6.70
2019,03,31,03,59,6.60
2019,03,31,04,00,6.60
2019,03,31,04,01,6.60
2019,03,31,04,02,6.60
2019,03,31,04,03,6.60
2019,03,31,04,04,6.60
2019,03,31,04,05,6.60
2019,03,31,04,06,6.60
2019,03,31,04,07,6.60
2019,03,31,04,08,6.60
2019,03,31,04,09,6.60
2019,03,31,04,10,6.60
2019,03,31,04,11,6.50
2019,03,31,04,12,6.50
2019,03,31,04,13,6.50
2019,03,31,04,14,6.50
2019,03,31,04,15,6.50
2019,03,31,04,16,6.50
2019,03,31,04,17,6.50
2019,03,31,04,18,6.50
2019,03,31,04,19,6.40
2019,03,31,04,20,6.40
2019,03,31,04,21,6.40
2019,03,31,04,22,6.40
2019,03,31,04,23,6.40
2019,03,31,04,24,6.40
2019,03,31,04,25,6.40
2019,03,31,04,26,6.40
2019,03,31,04,27,6.40
2019,03,31,04,28,6.40
2019,03,31,04,29,6.40
2019,03,31,04,30,6.40
2019,03,31,04,31,6.40
2019,03,31,04,32,6.40
2019,03,31,04,33,6.40
2019,03,31,04,34,6.40
2019,03,31,04,35,6.40
2019,03,31,04,36,6.40
2019,03,31,04,37,6.40
2019,03,31,04,38,6.40
2019,03,31,04,39,6.40
2019,03,31,04,40,6.40
2019,03,31,04,41,6.40
2019,03,31,04,42,6.40
2019,03,31,04,43,6.40
2019,03,31,04,44,6.40
2019,03,31,04,45,6.40
2019,03,31,04,46,6.40
2019,03,31,04,47,6.40
2019,03,31,04,48,6.40
2019,03,31,04,49,6.40
2019,03,31,04,50,6.40
2019,03,31,04,51,6.40
2019,03,31,04,52,6.40
2019,03,31,04,53,6.30
2019,03,31,04,54,6.30
2019,03,31,04,55,6.30
2019,03,31,04,56,6.30
2019,03,31,04,57,6.30
2019,03,31,04,58,6.30
2019,03,31,04,59,6.30
2019,03,31,05,00,6.30
2019,03,31,05,01,6.30
2019,03,31,05,02,6.30
2019,03,31,05,03,6.30
2019,03,31,05,04,6.30
2019,03,31,05,05,6.30
2019,03,31,05,06,6.30
2019,03,31,05,07,6.30
2019,03,31,05,08,6.30
2019,03,31,05,09,6.30
2019,03,31,05,10,6.30
2019,03,31,05,11,6.30
2019,03,31,05,12,6.30
2019,03,31,05,13,6.30
2019,03,31,05,14,6.30
2019,03,31,05,15,6.30
2019,03,31,05,16,6.30
2019,03,31,05,17,6.30
2019,03,31,05,18,6.30
2019,03,31,05,19,6.30
2019,03,31,05,20,6.20
2019,03,31,05,21,6.20
2019,03,31,05,22,6.20
2019,03,31,05,23,6.20
2019,03,31,05,24,6.20
2019,03,31,05,25,6.20
2019,03,31,05,26,6.20
2019,03,31,05,27,6.20
2019,03,31,05,28,6.20
2019,03,31,05,29,6.20
2019,03,31,05,30,6.20
2019,03,31,05,31,6.20
2019,03,31,05,32,6.10
2019,03,31,05,33,6.10
2019,03,31,05,34,6.10
2019,03,31,05,35,6.10
2019,03,31,05,36,6.10
2019,03,31,05,37,6.10
2019,03,31,05,38,6.10
2019,03,31,05,39,6.10
2019,03,31,05,40,6.10
2019,03,31,05,41,6.10
2019,03,31,05,42,6.10
2019,03,31,05,43,6.10
2019,03,31,05,44,6.00
2019,03,31,05,45,6.00
2019,03,31,05,46,6.00
2019,03,31,05,47,6.00
2019,03,31,05,48,6.00
2019,03,31,05,49,6.00
2019,03,31,05,50,6.00
2019,03,31,05,51,5.90
2019,03,31,05,52,5.90
2019,03,31,05,53,5.90
2019,03,31,05,54,5.90
2019,03,31,05,55,5.90
2019,03,31,05,56,5.90
2019,03,31,05,57,5.90
2019,03,31,05,58,5.90
2019,03,31,05,59,5.90
2019,03,31,06,00,5.90
2019,03,31,06,01,5.90
2019,03,31,06,02,5.80
2019,03,31,06,03,5.80
2019,03,31,06,04,5.80
2019,03,31,06,05,5.80
2019,03,31,06,06,5.80
2019,03,31,06,07,5.80
2019,03,31,06,08,5.80
2019,03,31,06,09,5.80
2019,03,31,06,10,5.80
2019,03,31,06,11,5.80
2019,03,31,06,12,5.70
2019,03,31,06,13,5.70
2019,03,31,06,14,5.70
2019,03,31,06,15,5.70
2019,03,31,06,16,5.70
2019,03,31,06,17,5.70
2019,03,31,06,18,5.70
2019,03,31,06,19,5.70
2019,03,31,06,20,5.70
2019,03,31,06,21,5.70
2019,03,31,06,22,5.70
2019,03,31,06,23,5.70
2019,03,31,06,24,5.60
2019,03,31,06,25,5.60
2019,03,31,06,26,5.60
2019,03,31,06,27,5.60
2019,03,31,06,28,5.60
2019,03,31,06,29,5.60
2019,03,31,06,30,5.60
2019,03,31,06,31,5.60
2019,03,31,06,32,5.60
2019,03,31,06,33,5.60
2019,03,31,06,34,5.60
2019,03,31,06,35,5.60
2019,03,31,06,36,5.60
2019,03,31,06,37,5.60
2019,03,31,06,38,5.60
2019,03,31,06,39,5.60
2019,03,31,06,40,5.60
2019,03,31,06,41,5.60
2019,03,31,06,42,5.50
2019,03,31,06,43,5.50
2019,03,31,06,44,5.50
2019,03,31,06,45,5.50
2019,03,31,06,46,5.50
2019,03,31,06,47,5.50
2019,03,31,06,48,5.50
2019,03,31,06,49,5.50
2019,03,31,06,50,5.50
2019,03,31,06,51,5.50
2019,03,31,06,52,5.50
2019,03,31,06,53,5.50
2019,03,31,06,54,5.50
2019,03,31,06,55,5.50
2019,03,31,06,56,5.50
2019,03,31,06,57,5.50
2019,03,31,06,58,5.50
2019,03,31,06,59,5.60
2019,03,31,07,00,5.50
2019,03,31,07,01,5.60
2019,03,31,07,02,5.60
2019,03,31,07,03,5.60
2019,03,31,07,04,5.60
2019,03,31,07,05,5.60
2019,03,31,07,06,5.60
2019,03,31,07,07,5.60
2019,03,31,07,08,5.60
2019,03,31,07,09,5.60
2019,03,31,07,10,5.60
2019,03,31,07,11,5.60
2019,03,31,07,12,5.60
2019,03,31,07,13,5.60
2019,03,31,07,14,5.60
2019,03,31,07,15,5.60
2019,03,31,07,16,5.60
2019,03,31,07,17,5.60
2019,03,31,07,18,5.60
2019,03,31,07,19,5.60
2019,03,31,07,20,5.60
2019,03,31,07,21,5.60
2019,03,31,07,22,5.60
2019,03,31,07,23,5.60
2019,03,31,07,24,5.60
2019,03,31,07,25,5.60
2019,03,31,07,26,5.60
2019,03,31,07,27,5.70
2019,03,31,07,28,5.70
2019,03,31,07,29,5.70
2019,03,31,07,30,5.70
2019,03,31,07,31,5.70
2019,03,31,07,32,5.70
2019,03,31,07,33,5.70
2019,03,31,07,34,5.70
2019,03,31,07,35,5.70
2019,03,31,07,36,5.70
2019,03,31,07,37,5.70
2019,03,31,07,38,5.70
2019,03,31,07,39,5.70
2019,03,31,07,40,5.70
2019,03,31,07,41,5.70
2019,03,31,07,42,5.70
2019,03,31,07,43,5.70
2019,03,31,07,44,5.70
2019,03,31,07,45,5.70
2019,03,31,07,46,5.70
2019,03,31,07,47,5.80
2019,03,31,07,48,5.80
2019,03,31,07,49,5.80
2019,03,31,07,50,5.80
2019,03,31,07,51,5.80
2019,03,31,07,52,5.80
2019,03,31,07,53,5.80
2019,03,31,07,54,5.80
2019,03,31,07,55,5.80
2019,03,31,07,56,5.80
2019,03,31,07,57,5.80
2019,03,31,07,58,5.80
2019,03,31,07,59,5.80
2019,03,31,08,00,5.80
2019,03,31,08,01,5.80
2019,03,31,08,02,5.80
2019,03,31,08,03,5.80
2019,03,31,08,04,5.80
2019,03,31,08,05,5.80
2019,03,31,08,06,5.80
2019,03,31,08,07,5.80
2019,03,31,08,08,5.80
2019,03,31,08,09,5.80
2019,03,31,08,10,5.80
2019,03,31,08,11,5.80
2019,03,31,08,12,5.80
2019,03,31,08,13,5.80
2019,03,31,08,14,5.80
2019,03,31,08,15,5.80
2019,03,31,08,16,5.80
2019,03,31,08,17,5.80
2019,03,31,08,18,5.80
2019,03,31,08,19,5.80
2019,03,31,08,20,5.80
2019,03,31,08,21,5.80
2019,03,31,08,22,5.80
2019,03,31,08,23,5.80
2019,03,31,08,24,5.90
2019,03,31,08,25,5.90
2019,03,31,08,26,5.90
2019,03,31,08,27,5.90
2019,03,31,08,28,5.90
2019,03,31,08,29,5.90
2019,03,31,08,30,5.90
2019,03,31,08,31,5.90
2019,03,31,08,32,5.90
2019,03,31,08,33,5.90
2019,03,31,08,34,5.90
2019,03,31,08,35,5.90
2019,03,31,08,36,5.90
2019,03,31,08,37,5.90
2019,03,31,08,38,5.90
2019,03,31,08,39,5.90
2019,03,31,08,40,6.00
2019,03,31,08,41,6.00
2019,03,31,08,42,6.00
2019,03,31,08,43,6.00
2019,03,31,08,44,6.00
2019,03,31,08,45,6.00
2019,03,31,08,46,6.10
2019,03,31,08,47,6.10
2019,03,31,08,48,6.10
2019,03,31,08,49,6.10
2019,03,31,08,50,6.10
2019,03,31,08,51,6.10
2019,03,31,08,52,6.10
2019,03,31,08,53,6.10
2019,03,31,08,54,6.20
2019,03,31,08,55,6.20
2019,03,31,08,56,6.20
2019,03,31,08,57,6.20
2019,03,31,08,58,6.20
2019,03,31,08,59,6.20
2019,03,31,09,00,6.20
2019,03,31,09,01,6.30
2019,03,31,09,02,6.30
2019,03,31,09,03,6.30
2019,03,31,09,04,6.30
2019,03,31,09,05,6.30
2019,03,31,09,06,6.30
2019,03,31,09,07,6.30
2019,03,31,09,08,6.40
2019,03,31,09,09,6.40
2019,03,31,09,10,6.40
2019,03,31,09,11,6.50
2019,03,31,09,12,6.50
2019,03,31,09,13,6.50
2019,03,31,09,14,6.50
2019,03,31,09,15,6.60
2019,03,31,09,16,6.60
2019,03,31,09,17,6.60
2019,03,31,09,18,6.60
2019,03,31,09,19,6.70
2019,03,31,09,20,6.70
2019,03,31,09,21,6.70
2019,03,31,09,22,6.80
2019,03,31,09,23,6.80
2019,03,31,09,24,6.80
2019,03,31,09,25,6.90
2019,03,31,09,26,6.90
2019,03,31,09,27,7.00
2019,03,31,09,28,7.00
2019,03,31,09,29,7.10
2019,03,31,09,30,7.10
2019,03,31,09,31,7.10
2019,03,31,09,32,7.10
2019,03,31,09,33,7.20
2019,03,31,09,34,7.20
2019,03,31,09,35,7.20
2019,03,31,09,36,7.20
2019,03,31,09,37,7.20
2019,03,31,09,38,7.30
2019,03,31,09,39,7.30
2019,03,31,09,40,7.30
2019,03,31,09,41,7.30
2019,03,31,09,42,7.30
2019,03,31,09,43,7.30
2019,03,31,09,44,7.40
2019,03,31,09,45,7.40
2019,03,31,09,46,7.40
2019,03,31,09,47,7.40
2019,03,31,09,48,7.50
2019,03,31,09,49,7.50
2019,03,31,09,50,7.50
2019,03,31,09,51,7.60
2019,03,31,09,52,7.60
2019,03,31,09,53,7.60
2019,03,31,09,54,7.60
2019,03,31,09,55,7.60
2019,03,31,09,56,7.60
2019,03,31,09,57,7.70
2019,03,31,09,58,7.70
2019,03,31,09,59,7.70
2019,03,31,10,00,7.80
2019,03,31,10,01,7.80
2019,03,31,10,02,7.80
2019,03,31,10,03,7.90
2019,03,31,10,04,7.90
2019,03,31,10,05,7.90
2019,03,31,10,06,7.90
2019,03,31,10,07,7.90
2019,03,31,10,08,8.00
2019,03,31,10,09,8.00
2019,03,31,10,10,8.00
2019,03,31,10,11,8.10
2019,03,31,10,12,8.10
2019,03,31,10,13,8.20
2019,03,31,10,14,8.20
2019,03,31,10,15,8.20
2019,03,31,10,16,8.30
2019,03,31,10,17,8.30
2019,03,31,10,18,8.30
2019,03,31,10,19,8.40
2019,03,31,10,20,8.50
2019,03,31,10,21,8.60
2019,03,31,10,22,8.60
2019,03,31,10,23,8.70
2019,03,31,10,24,8.80
2019,03,31,10,25,8.80
2019,03,31,10,26,8.90
2019,03,31,10,27,8.90
2019,03,31,10,28,8.90
2019,03,31,10,29,9.00
2019,03,31,10,30,9.00
2019,03,31,10,31,9.10
2019,03,31,10,32,9.10
2019,03,31,10,33,9.20
2019,03,31,10,34,9.20
2019,03,31,10,35,9.20
2019,03,31,10,36,9.20
2019,03,31,10,37,9.30
2019,03,31,10,38,9.30
2019,03,31,10,39,9.30
2019,03,31,10,40,9.40
2019,03,31,10,41,9.40
2019,03,31,10,42,9.50
2019,03,31,10,43,9.50
2019,03,31,10,44,9.50
2019,03,31,10,45,9.60
2019,03,31,10,46,9.60
2019,03,31,10,47,9.70
2019,03,31,10,48,9.70
2019,03,31,10,49,9.80
2019,03,31,10,50,9.80
2019,03,31,10,51,9.80
2019,03,31,10,52,9.90
2019,03,31,10,53,9.90
2019,03,31,10,54,10.00
2019,03,31,10,55,10.00
2019,03,31,10,56,10.10
2019,03,31,10,57,10.10
2019,03,31,10,58,10.10
2019,03,31,10,59,10.20
2019,03,31,11,00,10.30
2019,03,31,11,01,10.30
2019,03,31,11,02,10.30
2019,03,31,11,03,10.40
2019,03,31,11,04,10.40
2019,03,31,11,05,10.40
2019,03,31,11,06,10.50
2019,03,31,11,07,10.50
2019,03,31,11,08,10.50
2019,03,31,11,09,10.60
2019,03,31,11,10,10.60
2019,03,31,11,11,10.60
2019,03,31,11,12,10.60
2019,03,31,11,13,10.60
2019,03,31,11,14,10.60
2019,03,31,11,15,10.60
2019,03,31,11,16,10.70
2019,03,31,11,17,10.70
2019,03,31,11,18,10.70
2019,03,31,11,19,10.70
2019,03,31,11,20,10.80
2019,03,31,11,21,10.80
2019,03,31,11,22,10.80
2019,03,31,11,23,10.80
2019,03,31,11,24,10.80
2019,03,31,11,25,10.90
2019,03,31,11,26,10.90
2019,03,31,11,27,10.90
2019,03,31,11,28,10.90
2019,03,31,11,29,11.00
2019,03,31,11,30,11.00
2019,03,31,11,31,11.10
2019,03,31,11,32,11.10
2019,03,31,11,33,11.20
2019,03,31,11,34,11.20
2019,03,31,11,35,11.20
2019,03,31,11,36,11.30
2019,03,31,11,37,11.30
2019,03,31,11,38,11.30
2019,03,31,11,39,11.40
2019,03,31,11,40,11.40
2019,03,31,11,41,11.40
2019,03,31,11,42,11.50
2019,03,31,11,43,11.50
2019,03,31,11,44,11.50
2019,03,31,11,45,11.60
2019,03,31,11,46,11.60
2019,03,31,11,47,11.60
2019,03,31,11,48,11.60
2019,03,31,11,49,11.70
2019,03,31,11,50,11.70
2019,03,31,11,51,11.70
2019,03,31,11,52,11.80
2019,03,31,11,53,11.80
2019,03,31,11,54,11.80
2019,03,31,11,55,11.90
2019,03,31,11,56,12.00
2019,03,31,11,57,12.00
2019,03,31,11,58,12.00
2019,03,31,11,59,12.10
2019,03,31,12,00,12.10
2019,03,31,12,01,12.10
2019,03,31,12,02,12.20
2019,03,31,12,03,12.20
2019,03,31,12,04,12.10
2019,03,31,12,05,12.10
2019,03,31,12,06,12.10
2019,03,31,12,07,12.10
2019,03,31,12,08,12.10
2019,03,31,12,09,12.10
2019,03,31,12,10,12.10
2019,03,31,12,11,12.10
2019,03,31,12,12,12.10
2019,03,31,12,13,12.10
2019,03,31,12,14,12.10
2019,03,31,12,15,12.10
2019,03,31,12,16,12.20
2019,03,31,12,17,12.20
2019,03,31,12,18,12.20
2019,03,31,12,19,12.20
2019,03,31,12,20,12.20
2019,03,31,12,21,12.30
2019,03,31,12,22,12.30
2019,03,31,12,23,12.30
2019,03,31,12,24,12.30
2019,03,31,12,25,12.40
2019,03,31,12,26,12.40
2019,03,31,12,27,12.40
2019,03,31,12,28,12.40
2019,03,31,12,29,12.40
2019,03,31,12,30,12.50
2019,03,31,12,31,12.50
2019,03,31,12,32,12.50
2019,03,31,12,33,12.60
2019,03,31,12,34,12.60
2019,03,31,12,35,12.70
2019,03,31,12,36,12.70
2019,03,31,12,37,12.70
2019,03,31,12,38,12.80
2019,03,31,12,39,12.80
2019,03,31,12,40,12.80
2019,03,31,12,41,12.90
2019,03,31,12,42,12.90
2019,03,31,12,43,12.90
2019,03,31,12,44,12.90
2019,03,31,12,45,13.00
2019,03,31,12,46,13.00
2019,03,31,12,47,13.10
2019,03,31,12,48,13.10
2019,03,31,12,49,13.10
2019,03,31,12,50,13.20
2019,03,31,12,51,13.20
2019,03,31,12,52,13.20
2019,03,31,12,53,13.30
2019,03,31,12,54,13.30
2019,03,31,12,55,13.30
2019,03,31,12,56,13.40
2019,03,31,12,57,13.40
2019,03,31,12,58,13.40
2019,03,31,12,59,13.50
2019,03,31,13,00,13.50
2019,03,31,13,01,13.60
2019,03,31,13,02,13.60
2019,03,31,13,03,13.60
2019,03,31,13,04,13.60
2019,03,31,13,05,13.70
2019,03,31,13,06,13.70
2019,03,31,13,07,13.70
2019,03,31,13,08,13.70
2019,03,31,13,09,13.70
2019,03,31,13,10,13.80
2019,03,31,13,11,13.80
2019,03,31,13,12,13.80
2019,03,31,13,13,13.80
2019,03,31,13,14,13.80
2019,03,31,13,15,13.90
2019,03,31,13,16,13.90
2019,03,31,13,17,13.90
2019,03,31,13,18,14.00
2019,03,31,13,19,14.00
2019,03,31,13,20,14.00
2019,03,31,13,21,14.10
2019,03,31,13,22,14.10
2019,03,31,13,23,14.10
2019,03,31,13,24,14.10
2019,03,31,13,25,14.10
2019,03,31,13,26,14.10
2019,03,31,13,27,14.10
2019,03,31,13,28,14.20
2019,03,31,13,29,14.20
2019,03,31,13,30,14.20
2019,03,31,13,31,14.30
2019,03,31,13,32,14.30
2019,03,31,13,33,14.30
2019,03,31,13,34,14.30
2019,03,31,13,35,14.30
2019,03,31,13,36,14.40
2019,03,31,13,37,14.40
2019,03,31,13,38,14.40
2019,03,31,13,39,14.40
2019,03,31,13,40,14.40
2019,03,31,13,41,14.40
2019,03,31,13,42,14.40
2019,03,31,13,43,14.40
2019,03,31,13,44,14.50
2019,03,31,13,45,14.60
2019,03,31,13,46,14.60
2019,03,31,13,47,14.60
2019,03,31,13,48,14.60
2019,03,31,13,49,14.60
2019,03,31,13,50,14.60
2019,03,31,13,51,14.60
2019,03,31,13,52,14.70
2019,03,31,13,53,14.70
2019,03,31,13,54,14.70
2019,03,31,13,55,14.70
2019,03,31,13,56,14.80
2019,03,31,13,57,14.80
2019,03,31,13,58,14.80
2019,03,31,13,59,14.80
2019,03,31,14,00,14.80
2019,03,31,14,01,14.90
2019,03,31,14,02,14.90
2019,03,31,14,03,14.90
2019,03,31,14,04,14.80
2019,03,31,14,05,14.80
2019,03,31,14,06,14.80
2019,03,31,14,07,14.70
2019,03,31,14,08,14.70
2019,03,31,14,09,14.70
2019,03,31,14,10,14.60
2019,03,31,14,11,14.60
2019,03,31,14,12,14.50
2019,03,31,14,13,14.50
2019,03,31,14,14,14.40
2019,03,31,14,15,14.40
2019,03,31,14,16,14.30
2019,03,31,14,17,14.30
2019,03,31,14,18,14.30
2019,03,31,14,19,14.20
2019,03,31,14,20,14.20
2019,03,31,14,21,14.20
2019,03,31,14,22,14.20
2019,03,31,14,23,14.20
2019,03,31,14,24,14.10
2019,03,31,14,25,14.10
2019,03,31,14,26,14.10
2019,03,31,14,27,14.10
2019,03,31,14,28,14.10
2019,03,31,14,29,14.10
2019,03,31,14,30,14.00
2019,03,31,14,31,14.00
2019,03,31,14,32,14.00
2019,03,31,14,33,14.00
2019,03,31,14,34,13.90
2019,03,31,14,35,13.90
2019,03,31,14,36,13.90
2019,03,31,14,37,13.90
2019,03,31,14,38,13.90
2019,03,31,14,39,13.90
2019,03,31,14,40,13.90
2019,03,31,14,41,13.90
2019,03,31,14,42,13.90
2019,03,31,14,43,13.90
2019,03,31,14,44,13.90
2019,03,31,14,45,13.90
2019,03,31,14,46,13.90
2019,03,31,14,47,13.90
2019,03,31,14,48,13.90
2019,03,31,14,49,13.90
2019,03,31,14,50,13.90
2019,03,31,14,51,13.90
2019,03,31,14,52,13.90
2019,03,31,14,53,14.00
2019,03,31,14,54,14.00
2019,03,31,14,55,14.10
2019,03,31,14,56,14.10
2019,03,31,14,57,14.10
2019,03,31,14,58,14.10
2019,03,31,14,59,14.10
2019,03,31,15,00,14.20
2019,03,31,15,01,14.20
2019,03,31,15,02,14.20
2019,03,31,15,03,14.20
2019,03,31,15,04,14.20
2019,03,31,15,05,14.20
2019,03,31,15,06,14.20
2019,03,31,15,07,14.30
2019,03,31,15,08,14.30
2019,03,31,15,09,14.30
2019,03,31,15,10,14.30
2019,03,31,15,11,14.30
2019,03,31,15,12,14.30
2019,03,31,15,13,14.30
2019,03,31,15,14,14.30
2019,03,31,15,15,14.30
2019,03,31,15,16,14.30
2019,03,31,15,17,14.30
2019,03,31,15,18,14.30
2019,03,31,15,19,14.30
2019,03,31,15,20,14.30
2019,03,31,15,21,14.30
2019,03,31,15,22,14.40
2019,03,31,15,23,14.40
2019,03,31,15,24,14.50
2019,03,31,15,25,14.50
2019,03,31,15,26,14.60
2019,03,31,15,27,14.60
2019,03,31,15,28,14.60
2019,03,31,15,29,14.70
2019,03,31,15,30,14.70
2019,03,31,15,31,14.70
2019,03,31,15,32,14.70
2019,03,31,15,33,14.70
2019,03,31,15,34,14.70
2019,03,31,15,35,14.70
2019,03,31,15,36,14.80
2019,03,31,15,37,14.80
2019,03,31,15,38,14.80
2019,03,31,15,39,14.80
2019,03,31,15,40,14.90
2019,03,31,15,41,14.90
2019,03,31,15,42,14.90
2019,03,31,15,43,15.00
2019,03,31,15,44,15.00
2019,03,31,15,45,15.00
2019,03,31,15,46,15.00
2019,03,31,15,47,15.10
2019,03,31,15,48,15.10
2019,03,31,15,49,15.10
2019,03,31,15,50,15.10
2019,03,31,15,51,15.10
2019,03,31,15,52,15.20
2019,03,31,15,53,15.20
2019,03,31,15,54,15.30
2019,03,31,15,55,15.30
2019,03,31,15,56,15.30
2019,03,31,15,57,15.30
2019,03,31,15,58,15.30
2019,03,31,15,59,15.30
2019,03,31,16,00,15.20
2019,03,31,16,01,15.20
2019,03,31,16,02,15.20
2019,03,31,16,03,15.20
2019,03,31,16,04,15.20
2019,03,31,16,05,15.20
2019,03,31,16,06,15.20
2019,03,31,16,07,15.10
2019,03,31,16,08,15.10
2019,03,31,16,09,15.10
2019,03,31,16,10,15.10
2019,03,31,16,11,15.00
2019,03,31,16,12,15.00
2019,03,31,16,13,15.00
2019,03,31,16,14,15.00
2019,03,31,16,15,14.90
2019,03,31,16,16,14.90
2019,03,31,16,17,14.90
2019,03,31,16,18,15.00
2019,03,31,16,19,15.00
2019,03,31,16,20,15.00
2019,03,31,16,21,15.10
2019,03,31,16,22,15.10
2019,03,31,16,23,15.10
2019,03,31,16,24,15.20
2019,03,31,16,25,15.20
2019,03,31,16,26,15.20
2019,03,31,16,27,15.20
2019,03,31,16,28,15.10
2019,03,31,16,29,15.10
2019,03,31,16,30,15.10
2019,03,31,16,31,15.10
2019,03,31,16,32,15.10
2019,03,31,16,33,15.10
2019,03,31,16,34,15.00
2019,03,31,16,35,15.00
2019,03,31,16,36,14.90
2019,03,31,16,37,14.90
2019,03,31,16,38,14.90
2019,03,31,16,39,14.90
2019,03,31,16,40,14.90
2019,03,31,16,41,14.80
2019,03,31,16,42,14.80
2019,03,31,16,43,14.80
2019,03,31,16,44,14.70
2019,03,31,16,45,14.70
2019,03,31,16,46,14.70
2019,03,31,16,47,14.60
2019,03,31,16,48,14.60
2019,03,31,16,49,14.50
2019,03,31,16,50,14.40
2019,03,31,16,51,14.40
2019,03,31,16,52,14.40
2019,03,31,16,53,14.30
2019,03,31,16,54,14.30
2019,03,31,16,55,14.30
2019,03,31,16,56,14.30
2019,03,31,16,57,14.30
2019,03,31,16,58,14.20
2019,03,31,16,59,14.20
2019,03,31,17,00,14.20
2019,03,31,17,01,14.20
2019,03,31,17,02,14.20
2019,03,31,17,03,14.20
2019,03,31,17,04,14.20
2019,03,31,17,05,14.20
2019,03,31,17,06,14.10
2019,03,31,17,07,14.10
2019,03,31,17,08,14.10
2019,03,31,17,09,14.10
2019,03,31,17,10,14.10
2019,03,31,17,11,14.10
2019,03,31,17,12,14.00
2019,03,31,17,13,14.00
2019,03,31,17,14,14.00
2019,03,31,17,15,14.00
2019,03,31,17,16,14.00
2019,03,31,17,17,14.00
2019,03,31,17,18,13.90
2019,03,31,17,19,13.90
2019,03,31,17,20,13.90
2019,03,31,17,21,13.90
2019,03,31,17,22,13.90
2019,03,31,17,23,13.80
2019,03,31,17,24,13.80
2019,03,31,17,25,13.80
2019,03,31,17,26,13.80
2019,03,31,17,27,13.80
2019,03,31,17,28,13.80
2019,03,31,17,29,13.70
2019,03,31,17,30,13.70
2019,03,31,17,31,13.70
2019,03,31,17,32,13.70
2019,03,31,17,33,13.70
2019,03,31,17,34,13.70
2019,03,31,17,35,13.70
2019,03,31,17,36,13.70
2019,03,31,17,37,13.70
2019,03,31,17,38,13.60
2019,03,31,17,39,13.60
2019,03,31,17,40,13.60
2019,03,31,17,41,13.60
2019,03,31,17,42,13.60
2019,03,31,17,43,13.60
2019,03,31,17,44,13.60
2019,03,31,17,45,13.50
2019,03,31,17,46,13.50
2019,03,31,17,47,13.50